DW6963 Weather Reports


Display with metric or nautical units.
time (UTC)temp
F
wind
direction
speed
MPH
gust
MPH
rain 1hr
in
rain 24hr
in
rain mn
in
humidity
%
barometer
mb
20260502185321 51 0 0.0 0.0 0.00 0.00 0.00 48 1017.1
20260502184821 51 0 0.0 0.0 0.00 0.00 0.00 46 1017.1
20260502183320 51 0 0.0 0.0 0.00 0.00 0.00 45 1017.3
20260502182820 52 0 0.0 0.0 0.00 0.00 0.00 51 1017.3
20260502182321 51 0 0.0 0.0 0.00 0.00 0.00 50 1017.2
20260502181821 50 0 0.0 0.0 0.00 0.00 0.00 50 1017.3
20260502181320 50 0 0.0 0.0 0.00 0.00 0.00 49 1017.3
20260502180821 50 0 0.0 0.0 0.00 0.00 0.00 52 1017.3
20260502180321 50 0 0.0 0.0 0.00 0.00 0.00 50 1017.3
20260502170321 50 0 0.0 0.0 0.00 0.00 0.00 48 1017.6
20260502164320 50 0 0.0 0.0 0.00 0.00 0.00 50 1017.7
20260502163821 50 0 0.0 0.0 0.00 0.00 0.00 53 1017.8
20260502163321 49 0 0.0 0.0 0.00 0.00 0.00 52 1017.6
20260502162821 49 0 0.0 0.0 0.00 0.00 0.00 53 1017.7
20260502161821 49 0 0.0 0.0 0.00 0.00 0.00 50 1018.0
20260502160821 49 0 0.0 0.0 0.00 0.00 0.00 55 1017.9
20260502160321 49 0 0.0 0.0 0.00 0.00 0.00 54 1018.0
20260502152321 48 0 0.0 0.0 0.00 0.00 0.00 51 1018.1
20260502151821 47 0 0.0 0.0 0.00 0.00 0.00 53 1018.1
20260502151321 48 0 0.0 0.0 0.00 0.00 0.00 53 1018.1
20260502150821 47 0 0.0 0.0 0.00 0.00 0.00 52 1018.1
20260502150321 47 0 0.0 0.0 0.00 0.00 0.00 54 1018.2
20260502130321 43 0 0.0 0.0 0.00 0.00 0.00 66 1017.9
20260502123321 41 0 0.0 0.0 0.00 0.00 0.00 70 1017.9
20260502122821 41 0 0.0 0.0 0.00 0.00 0.00 72 1017.8
20260502122321 41 0 0.0 0.0 0.00 0.00 0.00 74 1017.7
20260502121821 40 0 0.0 0.0 0.00 0.00 0.00 75 1017.7
20260502121321 40 0 0.0 0.0 0.00 0.00 0.00 75 1017.6
20260502120821 40 0 0.0 0.0 0.00 0.00 0.00 75 1017.6
20260502120321 40 0 0.0 0.0 0.00 0.00 0.00 76 1017.6
20260502115321 39 0 0.0 0.0 0.00 0.00 0.00 80 1017.5
20260502114821 38 0 0.0 0.0 0.00 0.00 0.00 81 1017.3
20260502114321 38 0 0.0 0.0 0.00 0.00 0.00 82 1017.4
20260502113821 38 0 0.0 0.0 0.00 0.00 0.00 84 1017.3
20260502113320 37 0 0.0 0.0 0.00 0.00 0.00 85 1017.3
20260502112821 37 0 0.0 0.0 0.00 0.00 0.00 85 1017.3
20260502112321 36 0 0.0 0.0 0.00 0.00 0.00 86 1017.3
20260502111820 36 0 0.0 0.0 0.00 0.00 0.00 87 1017.4
20260502110821 36 0 0.0 0.0 0.00 0.00 0.00 87 1017.3
20260502110321 36 0 0.0 0.0 0.00 0.00 0.00 87 1017.3
20260502105821 36 0 0.0 0.0 0.00 0.00 0.00 88 1017.2
20260502105321 36 0 0.0 0.0 0.00 0.00 0.00 88 1017.2
20260502104820 36 0 0.0 0.0 0.00 0.00 0.00 88 1017.1
20260502103821 36 0 0.0 0.0 0.00 0.00 0.00 88 1017.1
20260502103320 36 0 0.0 0.0 0.00 0.00 0.00 88 1017.0
20260502102821 35 0 0.0 0.0 0.00 0.00 0.00 88 1017.0
20260502102321 35 0 0.0 0.0 0.00 0.00 0.00 88 1017.1
20260502101821 35 0 0.0 0.0 0.00 0.00 0.00 88 1017.1
20260502100321 35 0 0.0 0.0 0.00 0.00 0.00 88 1017.0
20260502091321 34 0 0.0 0.0 0.00 0.00 0.00 87 1017.1
20260502090820 34 0 0.0 0.0 0.00 0.00 0.00 87 1017.1
20260502090321 34 0 0.0 0.0 0.00 0.00 0.00 86 1017.1
20260502071321 37 0 0.0 0.0 0.00 0.00 0.00 81 1016.8
20260502070321 38 0 0.0 0.0 0.00 0.00 0.00 81 1016.9
20260502065821 38 0 0.0 0.0 0.00 0.00 0.00 81 1016.9
20260502065321 38 0 0.0 0.0 0.00 0.00 0.00 81 1017.0
20260502064821 38 0 0.0 0.0 0.00 0.00 0.00 81 1017.1
20260502064321 38 0 0.0 0.0 0.00 0.00 0.00 81 1017.1
20260502063820 38 0 0.0 0.0 0.00 0.00 0.00 81 1017.1
20260502063321 39 0 0.0 0.0 0.00 0.00 0.00 82 1017.3
20260502062821 38 0 0.0 0.0 0.00 0.00 0.00 82 1017.3
20260502062321 39 0 0.0 0.0 0.00 0.00 0.00 83 1017.4
20260502061821 39 0 0.0 0.0 0.00 0.00 0.00 84 1017.4
20260502060821 39 0 0.0 0.0 0.00 0.00 0.00 85 1017.5
20260502060321 39 0 0.0 0.0 0.00 0.00 0.00 85 1017.4
20260502055821 39 0 0.0 0.0 0.00 0.00 0.00 85 1017.4
20260502055321 39 0 0.0 0.0 0.00 0.00 0.00 86 1017.3
20260502054821 39 0 0.0 0.0 0.00 0.00 0.00 86 1017.3
20260502054321 39 0 0.0 0.0 0.00 0.00 0.00 86 1017.5
20260502053821 39 0 0.0 0.0 0.00 0.00 0.00 87 1017.5
20260502053321 39 0 0.0 0.0 0.00 0.00 0.00 87 1017.5
20260502052821 39 0 0.0 0.0 0.00 0.00 0.00 87 1017.5
20260502051321 38 0 0.0 0.0 0.00 0.00 0.00 87 1017.4
20260502050821 37 0 0.0 0.0 0.00 0.00 0.00 87 1017.4
20260502050321 37 0 0.0 0.0 0.00 0.00 0.00 87 1017.4
20260502045821 37 0 0.0 0.0 0.00 0.00 0.00 87 1017.5
20260502044821 37 0 0.0 0.0 0.00 0.00 0.00 86 1017.5
20260502044321 37 0 0.0 0.0 0.00 0.00 0.00 86 1017.6
20260502043821 37 0 0.0 0.0 0.00 0.00 0.00 85 1017.6
20260502043321 37 0 0.0 0.0 0.00 0.00 0.00 85 1017.6
20260502042821 37 0 0.0 0.0 0.00 0.00 0.00 85 1017.5
20260502042321 38 0 0.0 0.0 0.00 0.00 0.00 84 1017.5
20260502041821 38 0 0.0 0.0 0.00 0.00 0.00 85 1017.5
20260502041321 38 0 0.0 0.0 0.00 0.00 0.00 84 1017.4
20260502040821 38 0 0.0 0.0 0.00 0.00 0.00 84 1017.5
20260502040324 38 0 0.0 0.0 0.00 0.00 0.00 84 1017.4
20260502035821 39 0 0.0 0.0 0.00 0.00 0.00 84 1017.3
20260502035321 39 0 0.0 0.0 0.00 0.00 0.00 83 1017.5
20260502034821 39 0 0.0 0.0 0.00 0.00 0.00 83 1017.5
20260502034321 39 0 0.0 0.0 0.00 0.00 0.00 82 1017.5
20260502033821 40 0 0.0 0.0 0.00 0.00 0.00 82 1017.5
20260502033321 40 0 0.0 0.0 0.00 0.00 0.00 82 1017.5
20260502032821 40 0 0.0 0.0 0.00 0.00 0.00 82 1017.5
20260502032321 40 0 0.0 0.0 0.00 0.00 0.00 81 1017.5
20260502031321 41 0 0.0 0.0 0.00 0.00 0.00 79 1017.4
20260502030820 41 0 0.0 0.0 0.00 0.00 0.00 79 1017.4
20260502030321 42 0 0.0 0.0 0.00 0.00 0.00 79 1017.4
20260502025821 42 0 0.0 0.0 0.00 0.00 0.00 78 1017.4
20260502024821 42 0 0.0 0.0 0.00 0.00 0.00 77 1017.3
20260502024321 42 0 0.0 0.0 0.00 0.00 0.00 77 1017.3
20260502022821 43 0 0.0 0.0 0.00 0.00 0.00 77 1017.2
20260502022321 43 0 0.0 0.0 0.00 0.00 0.00 77 1017.2
20260502021821 43 0 0.0 0.0 0.00 0.00 0.00 77 1017.2
20260502021321 43 0 0.0 0.0 0.00 0.00 0.00 77 1017.1
20260502020821 43 0 0.0 0.0 0.00 0.00 0.00 76 1017.0
20260502020321 43 0 0.0 0.0 0.00 0.00 0.00 76 1016.8
20260502015821 44 0 0.0 0.0 0.00 0.00 0.00 76 1016.8
20260502015321 44 0 0.0 0.0 0.00 0.00 0.00 75 1016.8
20260502014821 44 0 0.0 0.0 0.00 0.00 0.00 76 1016.6
20260502014320 44 0 0.0 0.0 0.00 0.00 0.00 76 1016.5
20260502013821 44 0 0.0 0.0 0.00 0.00 0.00 76 1016.5
20260502013321 45 0 0.0 0.0 0.00 0.00 0.00 76 1016.5
20260502012821 45 0 0.0 0.0 0.00 0.00 0.00 76 1016.5
20260502011822 45 0 0.0 0.0 0.00 0.00 0.00 71 1016.4
20260502011321 45 0 0.0 0.0 0.00 0.00 0.00 70 1016.3
20260502010821 46 0 0.0 0.0 0.00 0.00 0.00 69 1016.2
20260502010321 46 0 0.0 0.0 0.00 0.00 0.00 68 1016.1
20260502005821 46 0 0.0 0.0 0.00 0.00 0.00 67 1015.8
20260502005321 47 0 0.0 0.0 0.00 0.00 0.00 66 1015.7
20260502004821 47 0 0.0 0.0 0.00 0.00 0.00 66 1015.6
20260502004321 47 0 0.0 0.0 0.00 0.00 0.00 65 1015.4
20260502003821 48 0 0.0 0.0 0.00 0.00 0.00 65 1015.3
20260502003321 48 0 0.0 0.0 0.00 0.00 0.00 64 1015.2
20260502002821 48 0 0.0 0.0 0.00 0.00 0.00 63 1015.0
20260502002321 49 0 0.0 0.0 0.00 0.00 0.00 62 1015.1
20260502001321 49 0 0.0 0.0 0.00 0.00 0.00 60 1015.2
20260502000321 50 0 0.0 0.0 0.00 0.00 0.00 60 1015.5
20260501235821 50 0 0.0 0.0 0.00 0.00 0.00 60 1015.5
20260501235321 50 0 0.0 0.0 0.00 0.00 0.00 60 1015.5
20260501234821 50 0 0.0 0.0 0.00 0.00 0.00 60 1015.4
20260501234321 50 0 0.0 0.0 0.00 0.00 0.00 59 1015.4
20260501233820 50 0 0.0 0.0 0.00 0.00 0.00 59 1015.3
20260501233321 50 0 0.0 0.0 0.00 0.00 0.00 58 1015.1
20260501232821 50 0 0.0 0.0 0.00 0.00 0.00 57 1015.0
20260501232321 51 0 0.0 0.0 0.00 0.00 0.00 57 1015.0
20260501231322 50 0 0.0 0.0 0.00 0.00 0.00 61 1015.0
20260501230821 51 0 0.0 0.0 0.00 0.00 0.00 60 1014.9
20260501230321 51 0 0.0 0.0 0.00 0.00 0.00 60 1015.0
20260501225822 51 0 0.0 0.0 0.00 0.00 0.00 59 1015.0
20260501225321 52 0 0.0 0.0 0.00 0.00 0.00 60 1015.0
20260501224822 52 0 0.0 0.0 0.00 0.00 0.00 61 1015.1
20260501223821 52 0 0.0 0.0 0.00 0.00 0.00 62 1015.1
20260501222821 52 0 0.0 0.0 0.00 0.00 0.00 64 1015.1
20260501222321 52 0 0.0 0.0 0.00 0.00 0.00 63 1015.2
20260501221821 51 0 0.0 0.0 0.00 0.00 0.00 65 1015.1
20260501221321 51 0 0.0 0.0 0.00 0.00 0.00 64 1015.0
20260501220821 51 0 0.0 0.0 0.00 0.00 0.00 64 1014.9
20260501220321 51 0 0.0 0.0 0.00 0.00 0.00 65 1014.9
20260501215821 50 0 0.0 0.0 0.00 0.00 0.00 66 1014.9
20260501215321 51 0 0.0 0.0 0.00 0.00 0.00 65 1014.9
20260501214821 51 0 0.0 0.0 0.00 0.00 0.00 63 1015.1
20260501214321 51 0 0.0 0.0 0.00 0.00 0.00 64 1015.2
20260501213821 51 0 0.0 0.0 0.00 0.00 0.00 65 1015.2
20260501213321 51 0 0.0 0.0 0.00 0.00 0.00 67 1015.1
20260501211821 50 0 0.0 0.0 0.00 0.00 0.00 67 1015.2
20260501211321 50 0 0.0 0.0 0.00 0.00 0.00 68 1015.2
20260501210821 50 0 0.0 0.0 0.00 0.00 0.00 67 1015.2
20260501210321 50 0 0.0 0.0 0.00 0.00 0.00 67 1015.1
20260501205821 50 0 0.0 0.0 0.00 0.00 0.00 68 1015.1
20260501205321 50 0 0.0 0.0 0.00 0.00 0.00 67 1015.1
20260501204321 51 0 0.0 0.0 0.00 0.00 0.00 66 1015.0
20260501203821 51 0 0.0 0.0 0.00 0.00 0.00 67 1014.9
20260501203321 51 0 0.0 0.0 0.00 0.00 0.00 68 1014.9
20260501202821 51 0 0.0 0.0 0.00 0.00 0.00 69 1014.9
20260501201821 50 0 0.0 0.0 0.00 0.00 0.00 69 1014.7
20260501201321 50 0 0.0 0.0 0.00 0.00 0.00 70 1014.7
20260501200321 51 0 0.0 0.0 0.00 0.00 0.00 68 1014.7
20260501195821 52 0 0.0 0.0 0.00 0.00 0.00 67 1014.7
20260501195322 52 0 0.0 0.0 0.00 0.00 0.00 71 1014.6
20260501194821 52 0 0.0 0.0 0.00 0.00 0.00 69 1014.6
20260501194321 52 0 0.0 0.0 0.00 0.00 0.00 67 1014.6
20260501193821 52 0 0.0 0.0 0.00 0.00 0.00 68 1014.5
20260501191822 53 0 0.0 0.0 0.00 0.00 0.00 69 1014.5
20260501190821 53 0 0.0 0.0 0.00 0.00 0.00 65 1014.4